GAOFEN-12 04

Last updated on Mon Sep 07 2026 00:02:46 GMT+0000 (Coordinated Universal Time)

1 57654U 23123A 26249.61449895 .00000501 00000+0 73277-4 0 9992 2 57654 97.9067 166.3912 0001799 177.1645 182.9578 14.79853451164673
UTC large
Height (km)
Speed (km/s)
/
Latitude / Longitude
Inclination (degrees)
Orbital Period (minutes)
Azimuth
Elevation
Range (km)
Doppler Factor

Next 0 passes for location: London (51.5072 / 0.1276)

No passes found over London.
GAOFEN-12 04